Weather History for KMGM - May, 2013

Change the Weather History Date:

Thursday, May 2, 2013

  Actual Average Record
Temperature  
Mean Temperature 69 °F 68 °F  
Max Temperature 73 °F 81 °F 93 °F (1948)
Min Temperature 65 °F 56 °F 44 °F (1963)
Degree Days  
Heating Degree Days 0 1  
Month to date heating degree days 0 2  
Since 1 July heating degree days 1917 2228  
Cooling Degree Days 4 4  
Month to date cooling degree days 8 8  
Year to date cooling degree days 140 109  
Growing Degree Days 18 (Base 50)    
Moisture  
Dew Point 59 °F    
Average Humidity 72    
Maximum Humidity 78    
Minimum Humidity 66    
Precipitation  
Precipitation 0.00 in 0.11 in 1.54 in (1985)
Month to date precipitation 0.04 0.22  
Year to date precipitation 24.12 20.12  
Snow  
Snow 0.00 in 0.00 in - ()
Month to date snowfall 0.0 0.0  
Since 1 July snowfall 0.0 0.4  
Snow Depth 0.00 in    
Sea Level Pressure  
Sea Level Pressure 30.03 in    
Wind  
Wind Speed 13 mph (ENE)    
Max Wind Speed 22 mph    
Max Gust Speed 29 mph    
Visibility 10 miles    
Events      
T = Trace of Precipitation, MM = Missing Value Source: NWS Daily Summary

Daily Weather History Graph

Daily Weather History Graph

Search for Another Location

Airport or City:

Trip Planner

Search our weather history database for the weather conditions in past years. The results will help you decide how hot, cold, wet, or windy it might be!

Date:

Astronomy

May. 02, 2013 Rise Set
Actual Time 5:58 AM CDT 7:27 PM CDT
Civil Twilight 5:31 AM CDT 7:53 PM CDT
Nautical Twilight 5:00 AM CDT 8:25 PM CDT
Astronomical Twilight 4:27 AM CDT 8:57 PM CDT
Moon 1:19 AM CDT (5/2) 12:40 PM CDT (5/2)
Length of Visible Light 14h 21m
Length of Day
13h 29m
Waning Gibbous, 47% of the Moon is Illuminated
May 2
Waning Gibbous
May 9
New
May 17
First Quarter
May 24
Full
May 31
Last Quarter

Hourly Weather History & Observations

Time (CDT) Temp. Dew Point Humidity Pressure Visibility Wind Dir Wind Speed Gust Speed Precip Events Conditions
12:53 AM 66.0 °F 55.9 °F 70% 30.04 in 10.0 mi East 15.0 mph - N/A   Overcast
1:53 AM 64.9 °F 55.9 °F 73% 30.03 in 10.0 mi East 13.8 mph - N/A   Overcast
2:53 AM 64.9 °F 55.9 °F 73% 30.02 in 10.0 mi East 17.3 mph 24.2 mph N/A   Overcast
3:53 AM 64.9 °F 55.9 °F 73% 30.01 in 10.0 mi East 18.4 mph - N/A   Mostly Cloudy
4:53 AM 64.9 °F 55.9 °F 73% 30.01 in 10.0 mi East 15.0 mph - N/A   Overcast
5:22 AM 64.4 °F 55.4 °F 73% 30.03 in 10.0 mi East 10.4 mph 19.6 mph N/A   Overcast
5:53 AM 64.9 °F 57.0 °F 75% 30.04 in 10.0 mi East 11.5 mph - N/A   Overcast
6:53 AM 66.0 °F 57.0 °F 73% 30.05 in 10.0 mi East 12.7 mph - N/A   Overcast
7:53 AM 66.0 °F 57.9 °F 75% 30.06 in 10.0 mi East 11.5 mph - N/A   Overcast
8:53 AM 69.1 °F 59.0 °F 70% 30.08 in 10.0 mi East 10.4 mph - N/A   Overcast
9:53 AM 69.1 °F 59.0 °F 70% 30.07 in 10.0 mi East 18.4 mph 25.3 mph N/A   Overcast
10:53 AM 69.1 °F 60.1 °F 73% 30.08 in 10.0 mi East 17.3 mph - N/A   Overcast
11:53 AM 69.1 °F 60.1 °F 73% 30.07 in 10.0 mi East 13.8 mph - N/A   Overcast
12:53 PM 70.0 °F 61.0 °F 73% 30.06 in 10.0 mi NE 11.5 mph - N/A   Overcast
1:53 PM 70.0 °F 61.0 °F 73% 30.05 in 10.0 mi ENE 11.5 mph - N/A   Overcast
2:53 PM 71.1 °F 61.0 °F 70% 30.03 in 10.0 mi ENE 12.7 mph - N/A   Overcast
3:24 PM 73.4 °F 62.6 °F 69% 30.02 in 10.0 mi East 13.8 mph 20.7 mph N/A   Overcast
3:50 PM 71.6 °F 62.6 °F 73% 30.01 in 10.0 mi ENE 15.0 mph 18.4 mph N/A   Mostly Cloudy
3:53 PM 72.0 °F 61.0 °F 68% 30.01 in 10.0 mi ENE 13.8 mph 18.4 mph N/A   Overcast
4:19 PM 71.6 °F 60.8 °F 69% 30.01 in 10.0 mi ENE 12.7 mph 20.7 mph N/A   Overcast
4:53 PM 72.0 °F 61.0 °F 68% 30.01 in 10.0 mi ENE 10.4 mph - N/A   Overcast
5:53 PM 72.0 °F 62.1 °F 71% 30.00 in 10.0 mi NE 6.9 mph - N/A   Overcast
6:53 PM 72.0 °F 62.1 °F 71% 29.99 in 10.0 mi NE 8.1 mph - N/A   Partly Cloudy
7:53 PM 71.1 °F 61.0 °F 70% 29.99 in 10.0 mi ENE 10.4 mph - N/A   Scattered Clouds
8:53 PM 71.1 °F 60.1 °F 68% 30.01 in 10.0 mi East 16.1 mph - N/A   Mostly Cloudy
9:53 PM 71.1 °F 59.0 °F 66% 30.02 in 10.0 mi East 17.3 mph 24.2 mph N/A   Overcast
10:53 PM 70.0 °F 59.0 °F 68% 30.01 in 10.0 mi ENE 11.5 mph - N/A   Overcast
11:53 PM 69.1 °F 59.0 °F 70% 30.01 in 10.0 mi East 17.3 mph 23.0 mph N/A   Overcast